EW2649 Weather Reports


Display with metric or nautical units.
time (UTC)temp
F
wind
direction
speed
MPH
gust
MPH
rain 1hr
in
rain 24hr
in
rain mn
in
humidity
%
barometer
mb
20260906140046 46 198 1.0 2.0 0.00 0.00 0.00 90 1011.4
20260906134540 47 197 0.0 3.0 0.00 0.00 0.00 91 1011.3
20260906133038 47 197 0.0 4.0 0.00 0.00 0.00 90 1011.1
20260906131537 46 167 3.0 5.0 0.00 0.00 0.00 90 1011.0
20260906130046 46 189 2.0 3.0 0.00 0.00 0.00 90 1011.0
20260906124533 46 189 0.0 2.0 0.00 0.00 0.00 89 1010.9
20260906123040 47 192 2.0 3.0 0.00 0.00 0.00 88 1011.0
20260906121530 47 192 0.0 2.0 0.00 0.00 0.00 90 1011.0
20260906120030 47 193 2.0 4.0 0.00 0.00 0.00 89 1010.9
20260906114531 47 188 2.0 4.0 0.00 0.00 0.00 88 1010.9
20260906113026 47 180 1.0 3.0 0.00 0.00 0.00 88 1010.9
20260906111525 47 180 2.0 4.0 0.00 0.00 0.00 88 1011.0
20260906110025 47 180 2.0 5.0 0.00 0.00 0.00 88 1010.8
20260906104537 47 180 3.0 5.0 0.00 0.00 0.00 87 1010.8
20260906103039 47 166 3.0 5.0 0.00 0.00 0.00 87 1010.7
20260906101519 48 170 3.0 6.0 0.00 0.00 0.00 87 1010.8
20260906100025 48 181 3.0 4.0 0.00 0.00 0.00 88 1010.8
20260906094512 48 184 2.0 3.0 0.00 0.00 0.00 87 1010.8
20260906093017 48 186 2.0 3.0 0.00 0.00 0.00 87 1010.7
20260906091519 49 211 2.0 3.0 0.00 0.00 0.00 87 1010.8
20260906090005 49 223 1.0 2.0 0.00 0.00 0.00 86 1010.8
20260906084502 50 242 1.0 4.0 0.00 0.00 0.00 84 1010.9
20260906083100 51 203 2.0 4.0 0.00 0.00 0.00 84 1010.9
20260906081559 51 153 1.0 5.0 0.00 0.00 0.00 85 1010.9
20260906080057 51 180 2.0 6.0 0.00 0.00 0.00 85 1010.9
20260906074550 52 189 3.0 5.0 0.00 0.00 0.00 84 1011.0
20260906073026 52 173 3.0 5.0 0.00 0.00 0.00 83 1010.9
20260906071523 53 173 4.0 6.0 0.00 0.00 0.00 82 1010.9
20260906070023 53 171 3.0 6.0 0.00 0.00 0.00 83 1010.8
20260906064525 53 184 5.0 6.0 0.00 0.00 0.00 84 1010.9
20260906063030 53 167 4.0 6.0 0.00 0.00 0.00 83 1011.0
20260906061525 54 164 4.0 5.0 0.00 0.00 0.00 83 1011.0
20260906060023 54 174 5.0 6.0 0.00 0.00 0.00 83 1011.1
20260906054544 54 169 4.0 5.0 0.00 0.00 0.00 82 1011.1
20260906053023 55 192 4.0 5.0 0.00 0.00 0.00 80 1011.3
20260906051530 55 119 2.0 4.0 0.00 0.00 0.00 79 1011.4
20260906050028 56 236 0.0 5.0 0.00 0.00 0.00 78 1011.4
20260906044522 57 360 1.0 2.0 0.00 0.00 0.00 75 1011.4
20260906043021 58 360 1.0 2.0 0.00 0.00 0.00 75 1011.3
20260906041520 59 5 1.0 2.0 0.00 0.00 0.00 72 1011.0
20260906040020 59 5 0.0 2.0 0.00 0.00 0.00 69 1010.9
20260906034522 61 9 0.0 3.0 0.00 0.00 0.00 66 1010.6
20260906033020 61 126 1.0 2.0 0.00 0.00 0.00 65 1010.3
20260906031552 62 128 1.0 3.0 0.00 0.00 0.00 65 1010.1
20260906030018 63 92 0.0 4.0 0.00 0.00 0.00 65 1009.9
20260906024540 64 76 1.0 4.0 0.00 0.00 0.00 63 1009.8
20260906023020 65 190 0.0 5.0 0.00 0.00 0.00 61 1009.7
20260906021517 66 162 2.0 7.0 0.00 0.00 0.00 59 1009.6
20260906020017 68 144 4.0 7.0 0.00 0.00 0.00 57 1009.6
20260906014519 70 129 1.0 7.0 0.00 0.00 0.00 52 1009.5
20260906013016 72 25 0.0 4.0 0.00 0.00 0.00 45 1009.4
20260906011515 72 30 1.0 5.0 0.00 0.00 0.00 46 1009.4
20260906010037 73 190 2.0 6.0 0.00 0.00 0.00 42 1009.2
20260906004514 74 209 3.0 10.0 0.00 0.00 0.00 41 1009.2
20260906003014 76 194 5.0 8.0 0.00 0.00 0.00 39 1009.2
20260906001514 77 259 3.0 9.0 0.00 0.00 0.00 36 1009.2
20260906000018 77 275 3.0 9.0 0.00 0.00 0.00 39 1009.0
20260905234512 77 231 5.0 11.0 0.00 0.00 0.00 38 1009.0
20260905233011 77 254 10.0 15.0 0.00 0.00 0.00 38 1009.1
20260905231510 77 242 7.0 12.0 0.00 0.00 0.00 41 1009.1
20260905230017 77 223 7.0 13.0 0.00 0.00 0.00 42 1009.2
20260905224516 78 213 8.0 11.0 0.00 0.00 0.00 42 1009.4
20260905223013 80 219 8.0 12.0 0.00 0.00 0.00 42 1009.3
20260905221506 81 200 4.0 10.0 0.00 0.00 0.00 42 1009.4
20260905220003 82 66 3.0 10.0 0.00 0.00 0.00 37 1009.3
20260905214600 82 36 2.0 11.0 0.00 0.00 0.00 36 1009.5
20260905213101 82 67 3.0 12.0 0.00 0.00 0.00 38 1009.7
20260905211605 81 80 2.0 12.0 0.00 0.00 0.00 40 1009.8
20260905210059 81 38 2.0 9.0 0.00 0.00 0.00 41 1009.9
20260905204550 80 342 1.0 11.0 0.00 0.00 0.00 43 1009.9
20260905203043 80 348 2.0 9.0 0.00 0.00 0.00 44 1009.9
20260905201548 80 26 6.0 11.0 0.00 0.00 0.00 46 1010.1
20260905200037 79 17 2.0 8.0 0.00 0.00 0.00 48 1010.1
20260905194535 78 58 3.0 10.0 0.00 0.00 0.00 50 1010.1
20260905193036 79 36 4.0 9.0 0.00 0.00 0.00 49 1010.3
20260905191527 78 28 1.0 11.0 0.00 0.00 0.00 50 1010.4
20260905190023 78 36 3.0 10.0 0.00 0.00 0.00 50 1010.5
20260905184520 77 360 2.0 9.0 0.00 0.00 0.00 49 1010.6
20260905183027 75 342 5.0 8.0 0.00 0.00 0.00 51 1010.6
20260905181511 74 105 1.0 6.0 0.00 0.00 0.00 51 1010.6
20260905180006 74 17 3.0 6.0 0.00 0.00 0.00 52 1010.7
20260905174503 72 349 2.0 9.0 0.00 0.00 0.00 52 1010.7
20260905173104 72 290 2.0 8.0 0.00 0.00 0.00 52 1010.6
20260905171553 71 333 2.0 6.0 0.00 0.00 0.00 56 1010.7
20260905170050 69 306 1.0 4.0 0.00 0.00 0.00 60 1010.6
20260905164545 68 272 0.0 0.0 0.00 0.00 0.00 62 1010.7
20260905163042 66 34 0.0 3.0 0.00 0.00 0.00 65 1010.7
20260905161536 64 108 2.0 6.0 0.00 0.00 0.00 68 1010.8
20260905160035 61 175 0.0 3.0 0.00 0.00 0.00 77 1010.9
20260905154528 59 168 1.0 3.0 0.00 0.00 0.00 82 1011.0
20260905153023 56 168 0.0 2.0 0.00 0.00 0.00 87 1011.2
20260905151519 53 169 0.0 3.0 0.00 0.00 0.00 91 1011.0
20260905150015 50 176 1.0 3.0 0.00 0.00 0.00 92 1011.0
20260905144511 47 173 4.0 6.0 0.00 0.00 0.00 92 1010.8
20260905143006 46 183 2.0 4.0 0.00 0.00 0.00 91 1010.9
20260905141504 45 182 2.0 3.0 0.00 0.00 0.00 91 1011.0